Location: Nelson
(41.2830°S, 173.2830°E)
Time: 15:34:40
(UTC+13:00)

Cosmos 540 Rocket - Visible Passes

Search period start: 16 November 2019 00:00
Search period end: 26 November 2019 00:00
Orbit: 740 x 754 km, 74.1° (Epoch: 14 November)

Date Brightness Start Highest point End Pass type
(mag) Time Alt. Az. Time Alt. Az. Time Alt. Az.
16 Nov 5.7 03:38:43 10° NE 03:42:11 19° E 03:45:41 10° SE visible
16 Nov 3.8 05:18:20 10° NW 05:23:19 51° WSW 05:28:23 10° S visible
17 Nov 3.5 04:35:28 14° NNW 04:39:55 82° ENE 04:45:08 10° SSE visible
18 Nov 4.5 03:53:13 17° NNE 03:56:41 41° ENE 04:01:31 10° SSE visible
19 Nov 5.4 03:10:55 14° NE 03:13:37 21° E 03:17:24 10° SE visible
19 Nov 3.9 04:50:45 15° NW 04:54:50 46° WSW 04:59:50 10° S visible
20 Nov 3.4 04:08:25 26° NNW 04:11:24 89° WSW 04:16:37 10° SSE visible
21 Nov 4.2 03:26:02 30° NNE 03:28:08 46° ENE 03:33:05 10° SSE visible
21 Nov 4.9 05:05:58 10° WNW 05:09:59 23° WSW 05:14:02 10° S visible
22 Nov 5.1 02:43:37 21° ENE 02:45:02 23° E 02:49:04 10° SE visible
22 Nov 4.1 04:23:26 22° WNW 04:26:20 41° WSW 04:31:16 10° S visible
23 Nov 5.9 02:01:10 11° ENE 02:02:06 11° E 02:03:39 10° ESE visible
23 Nov 3.4 03:40:59 40° NNW 03:42:53 80° WSW 03:48:06 10° SSE visible
23 Nov 5.6 05:23:46 10° WSW 05:25:23 11° SW 05:27:00 10° SSW visible
24 Nov 3.9 02:58:30 43° NE 02:59:36 52° ENE 03:04:38 10° SSE visible
24 Nov 5.1 04:38:19 12° W 04:41:31 21° WSW 04:45:23 10° S visible
25 Nov 4.9 02:15:58 26° ENE 02:16:28 26° E 02:20:43 10° SE visible
25 Nov 4.3 03:55:48 26° WNW 03:57:52 37° WSW 04:02:41 10° S visible
